Location: Camp Crooked Creek
(37.9149°N, 85.6607°W)
Time: 05:23:47
(UTC-05:00)

Amateur Radio Satellites - All Passes

Search period start: 26 January 2015 04:53
Search period end: 27 January 2015 04:53
Location: Camp Crooked Creek, 37.9149°N, 85.6607°W

Satellite Date Start Highest point End Downlink Frequencies (MHz)
Time Altitude Azimuth
PCSat 26 Jan 04:55:33 05:00:19 34° 110° (ESE) 05:05:12 145.827
AIST 2 26 Jan 05:00:51 05:04:51 39° 306° (NW) 05:08:53 435.215
Gurwin Techsat 1B 26 Jan 05:00:52 05:03:34 14° 297° (WNW) 05:06:00 435.225
O/OREOS (USA 219) 26 Jan 05:01:12 05:02:38 11° 261° (W) 05:03:45 437.305
DANDE 26 Jan 05:26:26 05:34:13 87° 98° (E) 05:43:00 436.750
BEESAT 2 26 Jan 05:27:22 05:28:50 11° 318° (NW) 05:30:10 435.950
AO-7 26 Jan 05:32:46 05:41:05 71° 290° (WNW) 05:49:18 29.400- 29.500
YUBILEINY 26 Jan 05:43:43 05:46:24 12° 57° (ENE) 05:49:48 435.215
MOZHAYETS 4 26 Jan 05:43:57 05:47:45 24° 266° (W) 05:51:28
PRISM 26 Jan 05:46:21 05:50:05 35° 72° (ENE) 05:53:52 437.425
CUBESAT XI-V 26 Jan 05:48:51 05:52:36 26° 70° (ENE) 05:56:28 437.345
Cubesat XI-IV 26 Jan 05:59:13 06:02:51 19° 92° (E) 06:06:41 437.490
RS-15 26 Jan 06:02:20 06:13:13 78° 118° (ESE) 06:24:13 29.354- 29.394
STRAND 1 26 Jan 06:05:34 06:09:59 32° 70° (ENE) 06:14:31 437.568
CUSAT 1 26 Jan 06:15:43 06:23:09 41° 289° (WNW) 06:30:59 437.405
CUTE-I 26 Jan 06:19:34 06:24:11 29° 95° (E) 06:28:52 437.470
ISS 26 Jan 06:25:53 06:29:12 77° 38° (NE) 06:32:30 145.825
JAS-2 26 Jan 06:33:40 06:38:37 33° 290° (WNW) 06:43:57 435.910
PCSat 26 Jan 06:38:55 06:43:45 32° 307° (NW) 06:48:34 145.827
DANDE 26 Jan 07:12:59 07:19:01 21° 299° (WNW) 07:24:58 436.750
PRISM 26 Jan 07:23:06 07:25:47 16° 268° (W) 07:28:18 437.425
CUBESAT XI-V 26 Jan 07:26:04 07:30:01 27° 265° (W) 07:33:55 437.345
AO-7 26 Jan 07:28:10 07:32:36 15° 309° (NW) 07:36:34 29.400- 29.500
YUBILEINY 26 Jan 07:36:34 07:45:19 69° 80° (E) 07:54:05 435.215
Cubesat XI-IV 26 Jan 07:38:06 07:43:18 50° 288° (WNW) 07:48:28 437.490
STRAND 1 26 Jan 07:44:52 07:49:13 28° 265° (W) 07:53:31 437.568
CUTE-I 26 Jan 07:59:30 08:04:17 33° 291° (WNW) 08:08:59 437.470
BRITE-PL 26 Jan 08:03:45 08:06:28 14° 87° (E) 08:09:28 437.365/2234.400
RS-15 26 Jan 08:17:20 08:26:53 32° 322° (NW) 08:36:22 29.354- 29.394
GOMX 1 26 Jan 08:17:41 08:19:39 12° 86° (E) 08:21:58 467.674
CANX-2 26 Jan 08:25:31 08:27:04 12° 89° (E) 08:28:52 2200.000
DOVE 4 26 Jan 08:45:22 08:48:29 16° 89° (E) 08:51:46 437.250
CUTE 1.7 + AOD 2 26 Jan 08:48:51 08:52:02 21° 93° (E) 08:55:18 437.475
AAUSAT CUBESAT 2 26 Jan 08:50:32 08:52:19 13° 90° (E) 08:54:19 437.432
CINEMA 3 26 Jan 08:59:32 09:00:47 11° 86° (E) 09:02:23 145.822/145.860
HO-68 26 Jan 09:14:59 09:21:54 51° 100° (E) 09:28:51 435.675
SEEDS 26 Jan 09:23:44 09:27:47 45° 99° (E) 09:31:48 437.485
YUBILEINY 26 Jan 09:34:52 09:41:27 23° 277° (W) 09:47:39 435.215
UNISAT 6 26 Jan 09:37:10 09:40:36 21° 68° (ENE) 09:44:10 437.425
NANOSAT C BR1 26 Jan 09:39:36 09:40:48 11° 65° (ENE) 09:42:14 145.865
BRITE-PL 26 Jan 09:39:57 09:45:39 73° 285° (WNW) 09:51:09 437.365/2234.400
UWE-3 26 Jan 09:44:12 09:46:53 16° 90° (E) 09:49:42 435.000/436.395/437.385
QB50P2 26 Jan 09:50:32 09:53:00 16° 67° (ENE) 09:55:40 145.880/145.840
GOMX 1 26 Jan 09:53:01 09:58:31 76° 284° (WNW) 10:03:45 467.674
COMPASS 1 26 Jan 09:55:11 09:59:22 88° 283° (WNW) 10:03:31 437.405
CANX-2 26 Jan 09:59:18 10:03:24 49° 286° (WNW) 10:07:28 2200.000
QB50P1 26 Jan 10:00:30 10:03:31 20° 69° (ENE) 10:06:41 145.935-145.965
VERMONT LUNAR 26 Jan 10:03:56 10:07:04 32° 152° (SSE) 10:10:15 437.305
ANTELSAT 26 Jan 10:11:38 10:16:09 47° 73° (ENE) 10:20:42 437.575/2403.000
POLYITAN 1 26 Jan 10:12:18 10:15:53 27° 70° (ENE) 10:19:34 437.675
Oscar 11 26 Jan 10:13:03 10:17:19 59° 100° (E) 10:21:33 145.826/435.025
TIGRISAT 26 Jan 10:21:19 10:25:57 59° 74° (ENE) 10:30:36 435.000
SO-50 26 Jan 10:21:28 10:22:59 12° 108° (ESE) 10:24:47 436.795
DOVE 4 26 Jan 10:21:33 10:26:42 54° 286° (WNW) 10:31:35 437.250
AAUSAT CUBESAT 2 26 Jan 10:24:20 10:28:19 45° 286° (WNW) 10:32:15 437.432
CUTE 1.7 + AOD 2 26 Jan 10:24:21 10:28:01 28° 289° (WNW) 10:31:36 437.475
BUGSAT 1 26 Jan 10:29:36 10:33:09 30° 71° (ENE) 10:36:49 437.445
CUBEBUG 2 26 Jan 10:31:57 10:36:34 67° 100° (E) 10:40:59 437.445
POPSAT HIP 1 26 Jan 10:33:39 10:37:43 46° 73° (ENE) 10:41:52 437.405
CINEMA 3 26 Jan 10:33:46 10:38:40 68° 285° (WNW) 10:43:19 145.822/145.860
RS-15 26 Jan 10:38:14 10:44:19 16° 356° (N) 10:50:26 29.354- 29.394
DUCHIFAT 1 26 Jan 10:38:17 10:42:25 52° 74° (ENE) 10:46:36 145.980
DELFI C3 26 Jan 10:38:43 10:42:47 82° 283° (WNW) 10:46:49 145.870
PHONESAT 2.4 26 Jan 10:42:34 10:45:54 36° 153° (SSE) 10:49:16 2401.200-2431.200
UKube-1 26 Jan 10:46:26 10:50:50 78° 103° (ESE) 10:55:11 .
ZACube-1 26 Jan 10:54:28 10:58:58 84° 102° (ESE) 11:03:18 437.345
SEEDS 26 Jan 11:01:02 11:03:16 14° 293° (WNW) 11:05:19 437.485
DX 1 26 Jan 11:03:14 11:07:36 65° 285° (WNW) 11:11:56 434.975-435.025
HO-68 26 Jan 11:03:18 11:09:21 30° 297° (WNW) 11:15:14 435.675
ESTCUBE 1 26 Jan 11:04:31 11:07:42 19° 93° (E) 11:11:02 437.505/2401.250
FUNcube-1 26 Jan 11:07:38 11:12:06 70° 283° (WNW) 11:16:24 145.935
AISAT 26 Jan 11:11:35 11:16:02 56° 100° (E) 11:20:28 437.250
NANOSAT C BR1 26 Jan 11:12:00 11:16:13 61° 259° (W) 11:20:28 145.865
UNISAT 6 26 Jan 11:12:47 11:17:10 38° 263° (W) 11:21:34 437.425
UWE-3 26 Jan 11:19:26 11:23:45 42° 287° (WNW) 11:27:53 435.000/436.395/437.385
HUMSAT D 26 Jan 11:23:49 11:28:06 83° 283° (WNW) 11:32:17 437.325/437.525
QB50P2 26 Jan 11:24:33 11:28:37 42° 262° (W) 11:32:43 145.880/145.840
50 SAT 26 Jan 11:30:55 11:35:01 90° 100° (E) 11:39:02 437.505
QB50P1 26 Jan 11:35:23 11:39:14 32° 263° (W) 11:43:06 145.935-145.965
VERMONT LUNAR 26 Jan 11:41:34 11:45:04 73° 347° (NNW) 11:48:35 437.305
VELOX 1 26 Jan 11:41:39 11:46:09 69° 285° (WNW) 11:50:36 145.980
GONETS M04 26 Jan 11:44:07 11:49:03 17° 61° (ENE) 11:54:29
POLYITAN 1 26 Jan 11:48:20 11:51:49 23° 266° (W) 11:55:15 437.675
AIST 2 26 Jan 11:48:48 11:48:59 10° 40° (NE) 11:49:22 435.215
ANTELSAT 26 Jan 11:50:15 11:53:15 16° 269° (W) 11:56:03 437.575/2403.000
Oscar 11 26 Jan 11:51:24 11:53:04 12° 294° (WNW) 11:54:30 145.826/435.025
SO-50 26 Jan 11:58:28 12:02:59 67° 303° (WNW) 12:07:41 436.795
SPROUT 26 Jan 12:00:09 12:02:55 17° 92° (E) 12:05:50 437.525
CUBEBUG 1 26 Jan 12:00:13 12:04:41 77° 102° (ESE) 12:09:07 437.445
TIGRISAT 26 Jan 12:00:55 12:03:09 13° 271° (W) 12:05:07 435.000
BUGSAT 1 26 Jan 12:05:49 12:08:46 18° 267° (W) 12:11:36 437.445
BEESAT 2 26 Jan 12:07:43 12:11:25 30° 52° (NE) 12:15:06 435.950
AIST 1 26 Jan 12:09:04 12:13:15 63° 95° (E) 12:17:29
CUBEBUG 2 26 Jan 12:11:01 12:12:43 12° 296° (WNW) 12:14:09 437.445
POPSAT HIP 1 26 Jan 12:11:44 12:13:57 13° 270° (W) 12:15:59 437.405
Oscar 19 26 Jan 12:14:14 12:17:32 18° 65° (ENE) 12:21:01 437.125/150
DUCHIFAT 1 26 Jan 12:16:57 12:18:40 12° 270° (W) 12:20:09 145.980
PHONESAT 2.4 26 Jan 12:20:45 12:24:22 71° 347° (NNW) 12:28:02 2401.200-2431.200
BEESAT 3 26 Jan 12:25:03 12:29:07 51° 56° (NE) 12:33:07 437.485
ESTCUBE 1 26 Jan 12:40:35 12:44:44 36° 288° (WNW) 12:48:51 437.505/2401.250
TISAT 1 26 Jan 12:47:37 12:51:52 59° 100° (E) 12:56:06 437.305
AISAT 26 Jan 12:49:54 12:52:15 14° 294° (WNW) 12:54:22 437.250
RS-15 26 Jan 12:53:32 13:02:20 26° 31° (NNE) 13:11:44 29.354- 29.394
Gurwin Techsat 1B 26 Jan 13:02:21 13:04:06 12° 62° (ENE) 13:06:10 435.225
SWISSCUBE 26 Jan 13:18:01 13:21:24 20° 93° (E) 13:24:56 437.505
VERMONT LUNAR 26 Jan 13:19:56 13:23:24 55° 4° (N) 13:26:53 437.305
AIST 2 26 Jan 13:24:07 13:28:25 80° 59° (ENE) 13:32:37 435.215
BEESAT 26 Jan 13:34:02 13:38:01 27° 95° (E) 13:42:05 436.000
SPROUT 26 Jan 13:35:10 13:39:13 38° 288° (WNW) 13:43:12 437.525
ITUPSAT 1 26 Jan 13:35:47 13:39:50 27° 95° (E) 13:43:56 437.325
GONETS M04 26 Jan 13:38:38 13:47:22 89° 78° (ENE) 13:56:06
SO-50 26 Jan 13:44:04 13:44:35 10° 324° (NW) 13:44:53 436.795
PCSat 26 Jan 13:45:18 13:49:20 21° 48° (NE) 13:53:28 145.827
BEESAT 2 26 Jan 13:46:11 13:49:32 23° 248° (WSW) 13:52:45 435.950
Oscar 19 26 Jan 13:51:25 13:56:30 54° 260° (W) 14:01:37 437.125/150
HORYU 2 26 Jan 13:58:59 13:59:58 11° 64° (ENE) 14:01:13 437.375
PHONESAT 2.4 26 Jan 13:59:34 14:03:11 57° 5° (N) 14:06:48 2401.200-2431.200
ITAMSAT 1 26 Jan 14:00:10 14:05:16 64° 73° (ENE) 14:10:24 435.822/435.867
BEESAT 3 26 Jan 14:04:55 14:06:52 13° 250° (WSW) 14:08:37 437.485
TISAT 1 26 Jan 14:25:36 14:27:16 12° 294° (WNW) 14:28:42 437.305
Gurwin Techsat 1B 26 Jan 14:38:09 14:43:27 85° 256° (WSW) 14:48:48 435.225
AO-7 26 Jan 14:38:40 14:45:25 30° 60° (ENE) 14:52:24 29.400- 29.500
KKS-1 26 Jan 14:47:07 14:51:03 30° 96° (E) 14:55:01 437.445
STARS 26 Jan 14:48:31 14:51:45 20° 93° (E) 14:55:05 437.465
SWISSCUBE 26 Jan 14:55:01 14:59:28 39° 288° (WNW) 15:03:53 437.505
VERMONT LUNAR 26 Jan 14:58:07 15:01:38 69° 201° (SSW) 15:05:10 437.305
RS-15 26 Jan 15:05:33 15:17:00 79° 58° (ENE) 15:28:59 29.354- 29.394
BEESAT 26 Jan 15:11:44 15:15:53 29° 290° (WNW) 15:19:56 436.000
ITUPSAT 1 26 Jan 15:13:35 15:17:42 29° 290° (WNW) 15:21:46 437.325
CUSAT 1 26 Jan 15:18:16 15:23:32 26° 64° (ENE) 15:27:52 437.405
PCSat 26 Jan 15:27:51 15:33:10 56° 247° (WSW) 15:38:26 145.827
HORYU 2 26 Jan 15:31:37 15:36:07 71° 258° (WSW) 15:40:39 437.375
GONETS M04 26 Jan 15:38:07 15:43:12 16° 280° (W) 15:47:42
PHONESAT 2.4 26 Jan 15:38:13 15:41:50 64° 202° (SSW) 15:45:28 2401.200-2431.200
ITAMSAT 1 26 Jan 15:42:36 15:45:18 14° 271° (W) 15:47:43 435.822/435.867
M-CUBED/EXP-1 PRIME 26 Jan 16:04:24 16:07:41 62° 106° (ESE) 16:11:02 437.505
DANDE 26 Jan 16:14:37 16:21:38 68° 77° (ENE) 16:26:50 436.750
KKS-1 26 Jan 16:23:59 16:27:35 23° 291° (WNW) 16:31:04 437.445
STARS 26 Jan 16:24:19 16:28:20 33° 289° (WNW) 16:32:18 437.465
AO-7 26 Jan 16:29:29 16:37:45 62° 257° (WSW) 16:46:03 29.400- 29.500
VERMONT LUNAR 26 Jan 16:37:12 16:39:25 16° 214° (SW) 16:41:33 437.305
AUBIESAT-1 26 Jan 16:40:23 16:43:32 43° 291° (WNW) 16:46:45 437.475
JAS-2 26 Jan 16:43:50 16:49:33 86° 78° (ENE) 16:54:52 435.910
CUSAT 1 26 Jan 17:00:58 17:06:53 38° 271° (W) 17:11:21 437.405
PHONESAT 2.4 26 Jan 17:17:54 17:20:02 15° 215° (SW) 17:22:05 2401.200-2431.200
RS-15 26 Jan 17:19:25 17:28:34 27° 255° (WSW) 17:37:28 29.354- 29.394
Cubesat XI-IV 26 Jan 17:19:29 17:23:49 27° 68° (ENE) 17:28:17 437.490
O/OREOS (USA 219) 26 Jan 17:29:27 17:33:55 78° 291° (WNW) 17:38:27 437.305
CUTE-I 26 Jan 17:39:44 17:44:38 41° 71° (ENE) 17:49:38 437.470
MOZHAYETS 4 26 Jan 17:39:53 17:44:28 90° 102° (ESE) 17:49:02
DANDE 26 Jan 18:00:11 18:03:56 15° 281° (W) 18:06:55 436.750
STRAND 1 26 Jan 18:19:49 18:21:29 12° 88° (E) 18:23:30 437.568
YUBILEINY 26 Jan 18:44:12 18:47:49 14° 79° (E) 18:52:07 435.215
SO-50 26 Jan 18:53:34 18:54:52 11° 37° (NE) 18:56:22 436.795
Cubesat XI-IV 26 Jan 18:58:56 19:03:48 35° 263° (W) 19:08:39 437.490
PRISM 26 Jan 19:05:52 19:10:01 79° 102° (ESE) 19:14:10 437.425
BRITE-PL 26 Jan 19:13:47 19:15:45 13° 62° (ENE) 19:18:04 437.365/2234.400
CUTE-I 26 Jan 19:20:42 19:24:54 23° 267° (W) 19:29:00 437.470
CUBESAT XI-V 26 Jan 19:23:40 19:28:22 83° 100° (E) 19:33:05 437.345
GOMX 1 26 Jan 19:25:02 19:26:26 11° 62° (ENE) 19:28:08 467.674
CUTE 1.7 + AOD 2 26 Jan 19:41:33 19:43:35 14° 67° (ENE) 19:45:50 437.475
HO-68 26 Jan 19:42:09 19:48:14 33° 64° (ENE) 19:54:29 435.675
DOVE 4 26 Jan 19:49:52 19:52:28 15° 64° (ENE) 19:55:22 437.250
STRAND 1 26 Jan 19:56:10 20:01:19 72° 285° (WNW) 20:06:27 437.568
SEEDS 26 Jan 20:14:40 20:18:14 27° 71° (ENE) 20:21:52 437.485
SO-50 26 Jan 20:31:30 20:36:25 68° 57° (ENE) 20:41:19 436.795
YUBILEINY 26 Jan 20:34:49 20:43:29 83° 96° (E) 20:52:14 435.215
JUGNU 26 Jan 20:37:39 20:40:17 13° 179° (S) 20:42:57 437.505
UWE-3 26 Jan 20:40:54 20:42:45 13° 65° (ENE) 20:44:51 435.000/436.395/437.385
COMPASS 1 26 Jan 20:44:53 20:48:58 49° 74° (ENE) 20:53:05 437.405
BRITE-PL 26 Jan 20:48:40 20:53:32 77° 258° (WSW) 20:58:52 437.365/2234.400
CANX-2 26 Jan 20:50:12 20:54:31 89° 257° (WSW) 20:58:50 2200.000
GOMX 1 26 Jan 20:58:51 21:03:46 86° 255° (WSW) 21:09:06 467.674
Oscar 11 26 Jan 21:06:14 21:10:13 36° 72° (ENE) 21:14:14 145.826/435.025
SRMSAT 26 Jan 21:12:54 21:15:01 12° 174° (S) 21:17:11 437.500
AAUSAT CUBESAT 2 26 Jan 21:13:18 21:17:31 86° 258° (WSW) 21:21:45 437.432
CUTE 1.7 + AOD 2 26 Jan 21:14:59 21:19:10 49° 261° (W) 21:23:21 437.475
DOVE 4 26 Jan 21:24:47 21:29:40 65° 261° (W) 21:34:51 437.250
DELFI C3 26 Jan 21:25:12 21:29:08 47° 74° (ENE) 21:33:05 145.870
CUBEBUG 2 26 Jan 21:28:09 21:32:38 46° 73° (ENE) 21:37:15 437.445
HO-68 26 Jan 21:28:57 21:35:47 46° 261° (W) 21:42:35 435.675
CINEMA 3 26 Jan 21:33:05 21:37:56 89° 84° (E) 21:43:00 145.822/145.860
UKube-1 26 Jan 21:39:45 21:43:56 52° 74° (ENE) 21:48:11 .
ZACube-1 26 Jan 21:48:25 21:52:52 53° 74° (ENE) 21:57:24 437.345
SEEDS 26 Jan 21:50:36 21:54:04 23° 266° (W) 21:57:26 437.485
DX 1 26 Jan 21:56:57 22:01:17 87° 79° (ENE) 22:05:41 434.975-435.025
FUNcube-1 26 Jan 22:01:15 22:05:49 74° 76° (ENE) 22:10:26 145.935
ESTCUBE 1 26 Jan 22:03:37 22:06:08 15° 67° (ENE) 22:08:50 437.505/2401.250
AISAT 26 Jan 22:08:05 22:12:13 40° 72° (ENE) 22:16:25 437.250
ANTELSAT 26 Jan 22:08:44 22:09:32 11° 88° (E) 22:10:36 437.575/2403.000
HUMSAT D 26 Jan 22:13:54 22:18:09 55° 75° (ENE) 22:22:25 437.325/437.525
SO-50 26 Jan 22:14:02 22:16:31 13° 251° (WSW) 22:18:43 436.795
UWE-3 26 Jan 22:14:10 22:18:48 66° 260° (W) 22:23:30 435.000/436.395/437.385
50 SAT 26 Jan 22:16:36 22:20:30 42° 74° (ENE) 22:24:28 437.505
TIGRISAT 26 Jan 22:17:04 22:19:08 13° 89° (E) 22:21:26 435.000
AIST 1 26 Jan 22:19:39 22:21:44 14° 70° (ENE) 22:24:03
COMPASS 1 26 Jan 22:23:10 22:25:03 12° 270° (W) 22:26:41 437.405
JUGNU 26 Jan 22:27:07 22:28:29 11° 189° (S) 22:29:46 437.505
YUBILEINY 26 Jan 22:35:35 22:41:36 19° 297° (WNW) 22:47:09 435.215
VELOX 1 26 Jan 22:37:34 22:42:00 85° 73° (ENE) 22:46:28 145.980
Oscar 11 26 Jan 22:43:34 22:46:34 18° 268° (W) 22:49:26 145.826/435.025
SPROUT 26 Jan 22:54:37 22:55:52 11° 65° (ENE) 22:57:22 437.525
CUBEBUG 1 26 Jan 22:54:49 22:59:00 50° 74° (ENE) 23:03:15 437.445
NANOSAT C BR1 26 Jan 22:59:36 23:03:05 24° 95° (E) 23:06:37 145.865
SRMSAT 26 Jan 23:00:51 23:03:22 13° 184° (S) 23:05:50 437.500
DELFI C3 26 Jan 23:03:02 23:04:43 12° 270° (W) 23:06:10 145.870
ISS 26 Jan 23:04:40 23:07:54 63° 138° (SE) 23:11:11 145.825
CUBEBUG 2 26 Jan 23:06:34 23:09:39 17° 270° (W) 23:12:34 437.445
UNISAT 6 26 Jan 23:06:42 23:11:04 51° 99° (E) 23:15:20 437.425
QB50P2 26 Jan 23:11:56 23:15:53 34° 97° (E) 23:19:48 145.880/145.840
UKube-1 26 Jan 23:18:37 23:20:30 12° 270° (W) 23:22:08 .
QB50P1 26 Jan 23:22:08 23:26:17 44° 99° (E) 23:30:24 145.935-145.965
ZACube-1 26 Jan 23:27:15 23:29:39 14° 271° (W) 23:31:49 437.345
POLYITAN 1 26 Jan 23:34:53 23:39:12 65° 101° (E) 23:43:29 437.675
ESTCUBE 1 26 Jan 23:38:21 23:42:41 47° 261° (W) 23:47:02 437.505/2401.250
TISAT 1 26 Jan 23:38:36 23:42:26 35° 72° (ENE) 23:46:20 437.305
ANTELSAT 26 Jan 23:42:27 23:46:53 61° 286° (WNW) 23:51:10 437.575/2403.000
AISAT 26 Jan 23:46:08 23:49:04 17° 268° (W) 23:51:52 437.250
BUGSAT 1 26 Jan 23:48:29 23:52:46 71° 101° (ESE) 23:57:02 437.445
TIGRISAT 26 Jan 23:51:58 23:56:18 48° 287° (WNW) 00:00:30 435.000
HUMSAT D 26 Jan 23:52:41 23:54:22 12° 271° (W) 23:55:47 437.325/437.525
50 SAT 26 Jan 23:53:43 23:55:55 14° 270° (W) 23:57:56 437.505
AIST 1 26 Jan 23:55:35 23:59:44 45° 267° (W) 00:03:54
POPSAT HIP 1 26 Jan 23:56:28 00:00:47 71° 284° (WNW) 00:05:04 437.405
DUCHIFAT 1 27 Jan 00:00:49 00:05:06 64° 285° (WNW) 00:09:19 145.980
SWISSCUBE 27 Jan 00:23:31 00:26:48 20° 67° (ENE) 00:30:15 437.505
SPROUT 27 Jan 00:27:15 00:31:30 62° 259° (W) 00:35:48 437.525
CUBEBUG 1 27 Jan 00:33:43 00:35:45 13° 270° (W) 00:37:34 437.445
NANOSAT C BR1 27 Jan 00:35:19 00:38:57 26° 290° (WNW) 00:42:28 145.865
BEESAT 27 Jan 00:39:14 00:43:05 26° 69° (ENE) 00:47:04 436.000
ITUPSAT 1 27 Jan 00:41:18 00:45:13 27° 69° (ENE) 00:49:13 437.325
ISS 27 Jan 00:42:19 00:44:42 18° 335° (NNW) 00:47:04 145.825
GONETS M04 27 Jan 00:44:01 00:49:39 20° 82° (E) 00:55:44
UNISAT 6 27 Jan 00:45:04 00:47:28 14° 294° (WNW) 00:49:38 437.425
QB50P2 27 Jan 00:48:29 00:51:35 19° 292° (WNW) 00:54:34 145.880/145.840
QB50P1 27 Jan 00:59:17 01:01:51 15° 293° (WNW) 01:04:14 145.935-145.965
POLYITAN 1 27 Jan 01:13:26 01:14:40 11° 295° (WNW) 01:15:39 437.675
TISAT 1 27 Jan 01:15:29 01:18:25 18° 268° (W) 01:21:13 437.305
KKS-1 27 Jan 01:44:10 01:47:38 23° 69° (ENE) 01:51:14 437.445
STARS 27 Jan 01:44:54 01:47:26 16° 66° (ENE) 01:50:09 437.465
AUBIESAT-1 27 Jan 01:54:52 01:56:37 13° 64° (ENE) 01:58:28 437.475
SWISSCUBE 27 Jan 01:59:56 02:04:26 41° 262° (W) 02:08:55 437.505
O/OREOS (USA 219) 27 Jan 02:03:19 02:05:51 15° 55° (NE) 02:08:35 437.305
Oscar 19 27 Jan 02:04:43 02:09:50 62° 101° (ESE) 02:14:54 437.125/150
ITAMSAT 1 27 Jan 02:15:21 02:19:38 26° 94° (E) 02:24:01 435.822/435.867
BEESAT 27 Jan 02:16:40 02:20:52 30° 264° (W) 02:25:01 436.000
ITUPSAT 1 27 Jan 02:18:54 02:23:03 29° 264° (W) 02:27:11 437.325
BEESAT 3 27 Jan 02:19:21 02:21:35 15° 110° (ESE) 02:24:01 437.485
GONETS M04 27 Jan 02:36:53 02:45:41 76° 279° (W) 02:54:27
M-CUBED/EXP-1 PRIME 27 Jan 02:51:41 02:55:52 69° 72° (ENE) 02:59:43 437.505
Gurwin Techsat 1B 27 Jan 02:56:18 03:01:23 45° 98° (E) 03:06:28 435.225
STARS 27 Jan 03:19:18 03:23:35 46° 261° (W) 03:27:53 437.465
KKS-1 27 Jan 03:20:13 03:24:11 30° 264° (W) 03:28:07 437.445
AIST 2 27 Jan 03:21:15 03:24:45 26° 113° (ESE) 03:28:22 435.215
HORYU 2 27 Jan 03:25:31 03:29:09 25° 95° (E) 03:32:49 437.375
AUBIESAT-1 27 Jan 03:27:16 03:31:19 47° 255° (WSW) 03:35:03 437.475
BEESAT 2 27 Jan 03:38:23 03:42:30 79° 301° (WNW) 03:46:42 435.950
O/OREOS (USA 219) 27 Jan 03:41:12 03:45:43 55° 252° (WSW) 03:50:11 437.305
DANDE 27 Jan 03:41:22 03:46:14 18° 82° (E) 03:51:50 436.750
Oscar 19 27 Jan 03:45:40 03:48:43 15° 296° (WNW) 03:51:33 437.125/150
ITAMSAT 1 27 Jan 03:54:29 03:59:13 35° 290° (WNW) 04:03:53 435.822/435.867
BEESAT 3 27 Jan 03:55:28 03:59:24 44° 305° (NW) 04:03:24 437.485
ISS 27 Jan 03:59:16 04:00:06 11° 15° (NNE) 04:00:59 145.825
CUSAT 1 27 Jan 04:21:15 04:28:32 43° 90° (E) 04:36:26 437.405
PCSat 27 Jan 04:25:34 04:29:46 24° 108° (ESE) 04:34:08 145.827
AO-7 27 Jan 04:33:03 04:41:07 52° 101° (E) 04:49:10 29.400- 29.500
Gurwin Techsat 1B 27 Jan 04:37:03 04:41:06 22° 294° (WNW) 04:45:00 435.225
MOZHAYETS 4 27 Jan 04:39:58 04:44:31 68° 76° (ENE) 04:49:06
GONETS M04 27 Jan 04:39:58 04:44:22 14° 301° (WNW) 04:48:06
